[[{"header":{"parameterUnit":"m.s-1","parameterCategory":1,"la1":30.2991,"la2":30.254,"lo1":-89.0895,"lo2":-89.0444,"dy":0.0017,"dx":0.0017,"nx":28,"ny":28,"refTime":"2024-04-25T09:00:00:Z","depth":0,"parameterNumber":2,"parameterNumberName":"U-component_of_WINDS"},"data":[0,0,0,0,0,0,0,0,0,0,0,0,0,0,0,0,0,0,0,0,0,0,0,0,0,0,0,0,0,0,0,0,0,0,0,0,0,0,0,0,0,0,0,0,0,0,0,0,0,0,0,0,0,0,0,0,0,0,-0.7102,-0.7101,0,-0.7054,-0.7054,-0.7053,-0.7026,-0.7026,-0.7026,-0.7026,-0.6976,-0.6975,-0.6974,0,0,0,0,0,0,0,0,0,0,0,0,0,-0.7168,-0.7167,-0.7102,-0.7101,-0.7101,-0.7054,-0.7054,-0.7053,-0.7026,-0.7026,-0.7026,-0.7026,-0.6977,-0.6975,-0.6974,0,0,0,0,0,0,0,0,0,0,0,0,0,-0.7132,-0.7167,-0.7102,-0.7082,-0.7079,-0.7055,-0.7054,-0.7053,-0.7026,-0.7026,-0.7026,-0.7026,-0.6977,-0.6975,-0.6974,-0.6965,0,0,-0.6968,-0.6967,0,0,0,0,0,0,0,0,-0.7134,-0.713,-0.7085,-0.7083,-0.708,-0.7046,-0.7059,-0.7023,-0.7026,-0.7046,-0.7026,-0.7026,-0.7,-0.6996,-0.6987,-0.6963,-0.696,-0.6968,-0.6967,-0.6966,-0.6965,0,0,0,0,0,0,0,-0.7137,-0.7132,-0.7083,-0.7085,-0.7082,-0.7075,-0.7069,-0.7052,-0.7024,-0.7045,-0.7043,-0.7037,-0.6998,-0.6989,-0.6986,-0.696,-0.6968,-0.6966,-0.6965,-0.6964,-0.6926,-0.6926,0,0,0,0,0,0,-0.7143,-0.7134,-0.7085,-0.7082,-0.7108,-0.7074,-0.7068,-0.7057,-0.7024,-0.7019,-0.7038,-0.7036,-0.6992,-0.6988,-0.6984,-0.6972,-0.6966,-0.6964,-0.6963,-0.6926,-0.6926,-0.6926,0,0,0,0,0,0,-0.7144,-0.7139,-0.7087,-0.7107,-0.71,-0.7073,-0.7061,-0.7056,-0.7047,-0.7019,-0.7014,-0.7033,-0.6992,-0.6987,-0.697,-0.697,-0.6963,-0.6962,-0.6925,-0.6926,-0.6926,-0.6948,0,0,0,0,0,0,-0.7146,-0.7139,-0.7136,-0.7107,-0.7099,-0.7074,-0.7061,-0.7056,-0.7044,-0.7042,-0.7014,-0.7009,-0.6991,-0.6973,-0.6968,-0.6967,-0.696,-0.6925,-0.6925,-0.6926,-0.6947,-0.6948,-0.695,0,0,0,0,0,-0.7149,-0.7144,-0.7136,-0.713,-0.7094,-0.7074,-0.7069,-0.7049,-0.7044,-0.7041,-0.7023,-0.701,-0.6971,-0.6971,-0.6966,-0.6964,-0.6925,-0.6925,-0.6926,-0.6946,-0.6948,-0.695,0,0,0,0,0,0,-0.7173,-0.714,-0.7131,-0.7116,-0.7098,-0.7069,-0.7064,-0.7052,-0.7035,-0.7033,-0.7009,-0.7003,-0.6989,-0.6975,-0.6976,-0.6954,-0.6946,-0.6946,-0.6964,-0.6966,-0.6967,-0.6971,-0.6959,0,0,0,0,0,-0.7177,-0.7163,-0.7134,-0.7125,-0.7116,-0.7092,-0.7082,-0.7068,-0.7048,-0.704,-0.7021,-0.7002,-0.6985,-0.6974,-0.6957,-0.6944,-0.6938,-0.6941,-0.6942,-0.6944,-0.6943,-0.6935,-0.6936,-0.6926,-0.6926,-0.6926,0,0,-0.7184,-0.7164,-0.7157,-0.7129,-0.7113,-0.7099,-0.7085,-0.7071,-0.7061,-0.7038,-0.7021,-0.7006,-0.6983,-0.6969,-0.6961,-0.6956,-0.6944,-0.6944,-0.6945,-0.6944,-0.6936,-0.6937,-0.6937,-0.6926,-0.6926,-0.6926,0,0,-0.7191,-0.7174,-0.7164,-0.7149,-0.7125,-0.7109,-0.7107,-0.708,-0.7069,-0.7052,-0.7035,-0.7021,-0.6993,-0.6977,-0.6966,-0.6966,-0.6954,-0.6961,-0.697,-0.6962,-0.6963,-0.6964,-0.6964,-0.6964,-0.6961,-0.6961,-0.6961,0,-0.7203,-0.7182,-0.7161,-0.7148,-0.7136,-0.7115,-0.7105,-0.709,-0.7063,-0.7055,-0.705,-0.7014,-0.6997,-0.6978,-0.6979,-0.697,-0.6966,-0.6965,-0.6965,-0.6965,-0.6965,-0.6965,-0.6966,-0.6962,-0.6962,-0.6962,-0.6962,0,-0.7198,-0.7183,-0.7178,-0.7152,-0.7139,-0.7128,-0.7105,-0.7095,-0.7082,-0.7066,-0.7049,-0.7028,-0.7006,-0.7001,-0.6988,-0.698,-0.6978,-0.6969,-0.6961,-0.6968,-0.6967,-0.6967,-0.6964,-0.6963,-0.6963,-0.6963,0,0,-0.7219,-0.7181,-0.718,-0.7168,-0.714,-0.7128,-0.7115,-0.7095,-0.7086,-0.7067,-0.7056,-0.7033,-0.7024,-0.7011,-0.6997,-0.699,-0.6992,-0.6982,-0.6981,-0.6985,-0.6982,-0.6989,-0.699,-0.6984,-0.6984,-0.6983,-0.6984,0,-0.7222,-0.7198,-0.7179,-0.7163,-0.7149,-0.7129,-0.7118,-0.7099,-0.7084,-0.707,-0.7053,-0.7037,-0.7027,-0.7019,-0.7012,-0.6994,-0.6991,-0.6993,-0.6973,-0.6972,-0.698,-0.6989,-0.6997,-0.6999,-0.6984,-0.6984,-0.6984,0,-0.7222,-0.7204,-0.7187,-0.7161,-0.7154,-0.7145,-0.7124,-0.7111,-0.7089,-0.7079,-0.7064,-0.7049,-0.7034,-0.7027,-0.7007,-0.7008,-0.6999,-0.6989,-0.6988,-0.6986,-0.6979,-0.6988,-0.6999,-0.6999,-0.6983,-0.6983,-0.6984,0,-0.7239,-0.7211,-0.7197,-0.7187,-0.7156,-0.715,-0.7137,-0.7115,-0.7104,-0.7086,-0.7078,-0.7058,-0.7048,-0.7033,-0.7012,-0.7009,-0.6994,-0.6985,-0.6985,-0.6985,-0.6983,-0.6983,-0.6993,-0.6976,-0.6976,-0.6976,-0.6976,0,-0.7245,-0.7235,-0.7205,-0.7196,-0.7184,-0.7162,-0.7151,-0.7135,-0.7117,-0.7104,-0.7085,-0.7074,-0.7048,-0.7034,-0.7018,-0.7004,-0.6999,-0.699,-0.6986,-0.6992,-0.6993,-0.6985,-0.6985,-0.6976,-0.6976,-0.6976,-0.6976,0,-0.7263,-0.7242,-0.7225,-0.7197,-0.719,-0.7182,-0.7158,-0.7149,-0.7132,-0.7117,-0.7113,-0.7087,-0.7069,-0.7047,-0.7022,-0.7012,-0.6999,-0.6992,-0.7006,-0.7004,-0.7005,-0.7005,-0.701,-0.701,-0.6993,-0.6993,-0.6994,0,-0.7268,-0.726,-0.7231,-0.7221,-0.7209,-0.7194,-0.7182,-0.716,-0.7149,-0.7124,-0.7117,-0.7098,-0.7082,-0.7054,-0.7033,-0.7014,-0.7007,-0.701,-0.7004,-0.7011,-0.7008,-0.7009,-0.7008,-0.7012,-0.7012,-0.7013,-0.7013,0,-0.7279,-0.7269,-0.7253,-0.7234,-0.7221,-0.7204,-0.7187,-0.718,-0.7154,-0.7143,-0.7124,-0.7112,-0.7086,-0.7067,-0.7046,-0.7031,-0.7018,-0.7015,-0.7014,-0.702,-0.7028,-0.7024,-0.7011,-0.7015,-0.7015,-0.7014,-0.7014,-0.7014,-0.7291,-0.7283,-0.7261,-0.7244,-0.7229,-0.7213,-0.7203,-0.7186,-0.717,-0.7148,-0.7135,-0.7118,-0.7096,-0.7065,-0.7052,-0.7037,-0.7032,-0.7031,-0.703,-0.7031,-0.7033,-0.703,-0.7033,-0.7033,-0.7033,-0.7033,-0.7033,0,-0.7302,-0.7287,-0.7271,-0.7248,-0.7234,-0.7223,-0.7203,-0.7192,-0.7177,-0.7158,-0.7143,-0.7122,-0.7103,-0.7081,-0.7061,-0.7054,-0.7047,-0.7049,-0.705,-0.7047,-0.7038,-0.7041,-0.7055,-0.7055,-0.7055,-0.7055,-0.7055,-0.7055,-0.7306,-0.7291,-0.7279,-0.7257,-0.7242,-0.7224,-0.7214,-0.7199,-0.7184,-0.7162,-0.7147,-0.7132,-0.7112,-0.709,-0.7073,-0.7067,-0.706,-0.7065,-0.7057,-0.7049,-0.7047,-0.7045,-0.7048,-0.7063,-0.7063,-0.7067,-0.7067,-0.7067]},{"header":{"parameterUnit":"m.s-1","parameterCategory":1,"la1":30.2991,"la2":30.254,"lo1":-89.0895,"lo2":-89.0444,"dy":0.0017,"dx":0.0017,"nx":28,"ny":28,"refTime":"2024-04-25T09:00:00:Z","depth":0,"parameterNumber":3,"parameterNumberName":"V-component_of_WINDS"},"data":[0,0,0,0,0,0,0,0,0,0,0,0,0,0,0,0,0,0,0,0,0,0,0,0,0,0,0,0,0,0,0,0,0,0,0,0,0,0,0,0,0,0,0,0,0,0,0,0,0,0,0,0,0,0,0,0,0,0,0.4578,0.4578,0,0.4559,0.4559,0.4559,0.4561,0.4561,0.4562,0.4562,0.4542,0.4541,0.454,0,0,0,0,0,0,0,0,0,0,0,0,0,0.4615,0.4614,0.4578,0.4578,0.4577,0.4559,0.4559,0.4559,0.4561,0.4561,0.4562,0.4562,0.4542,0.4541,0.454,0,0,0,0,0,0,0,0,0,0,0,0,0,0.4598,0.4614,0.4578,0.4576,0.4576,0.4559,0.4559,0.4559,0.4561,0.4561,0.4562,0.4562,0.4543,0.4541,0.454,0.4523,0,0,0.4536,0.4536,0,0,0,0,0,0,0,0,0.4599,0.4596,0.4577,0.4576,0.4576,0.4563,0.4565,0.4547,0.4561,0.4567,0.4562,0.4563,0.4549,0.4547,0.4542,0.4523,0.4522,0.4536,0.4536,0.4535,0.4535,0,0,0,0,0,0,0,0.46,0.4597,0.457,0.4576,0.4576,0.4577,0.4575,0.4561,0.4555,0.4566,0.4566,0.4564,0.4548,0.4543,0.4542,0.4521,0.4536,0.4535,0.4534,0.4534,0.4488,0.4488,0,0,0,0,0,0,0.4602,0.4598,0.4571,0.457,0.4589,0.4576,0.4573,0.4567,0.4555,0.4554,0.4564,0.4564,0.4545,0.4543,0.4541,0.4522,0.4535,0.4534,0.4533,0.4489,0.4488,0.4488,0,0,0,0,0,0,0.4602,0.4599,0.4572,0.4584,0.4581,0.4574,0.4567,0.4566,0.4561,0.4554,0.4552,0.456,0.4546,0.4543,0.4528,0.4521,0.4533,0.4532,0.4489,0.4489,0.4488,0.4482,0,0,0,0,0,0,0.4603,0.4599,0.4593,0.4584,0.458,0.4559,0.4566,0.4565,0.4559,0.456,0.455,0.4548,0.4546,0.453,0.4527,0.452,0.4531,0.449,0.4489,0.4488,0.4483,0.4481,0.448,0,0,0,0,0,0.4605,0.4592,0.4593,0.4589,0.4572,0.4559,0.4556,0.4554,0.4559,0.4552,0.4548,0.4549,0.4522,0.4529,0.4525,0.4517,0.449,0.4489,0.4488,0.4484,0.4482,0.448,0,0,0,0,0,0,0.4599,0.459,0.4591,0.4575,0.4568,0.4559,0.4551,0.4552,0.4543,0.4543,0.4541,0.4538,0.4524,0.4519,0.4526,0.4501,0.4507,0.4505,0.4505,0.4503,0.4501,0.4503,0.453,0,0,0,0,0,0.4596,0.4586,0.4579,0.4565,0.4562,0.4557,0.4551,0.455,0.4542,0.4539,0.4533,0.4525,0.4515,0.4509,0.4499,0.4482,0.4481,0.4475,0.4474,0.4473,0.4471,0.4463,0.4461,0.4484,0.4484,0.4484,0,0,0.4589,0.4583,0.4577,0.4564,0.4558,0.4548,0.4554,0.4543,0.4536,0.4537,0.4523,0.4519,0.451,0.4494,0.4487,0.449,0.4464,0.4471,0.447,0.4469,0.4462,0.4459,0.4457,0.4483,0.4484,0.4484,0,0,0.4572,0.4567,0.4555,0.4549,0.4541,0.4538,0.4535,0.4527,0.4524,0.4511,0.4512,0.4503,0.4486,0.448,0.4474,0.4456,0.4457,0.4453,0.4445,0.4437,0.4435,0.4434,0.4428,0.4426,0.4452,0.4452,0.4452,0,0.4565,0.455,0.4549,0.4538,0.4532,0.4534,0.4522,0.4517,0.4505,0.4502,0.4505,0.4484,0.4478,0.4462,0.4458,0.4453,0.445,0.4454,0.4436,0.4434,0.4433,0.4427,0.4425,0.4451,0.4451,0.4451,0.4452,0,0.4542,0.4532,0.4523,0.4513,0.4507,0.4495,0.4492,0.4486,0.4486,0.4483,0.4469,0.4462,0.4452,0.4448,0.4447,0.4432,0.4434,0.4437,0.4442,0.443,0.4425,0.4423,0.4451,0.4451,0.4451,0.4451,0,0,0.452,0.451,0.4507,0.4503,0.4494,0.4486,0.4476,0.4466,0.4461,0.4453,0.4445,0.4431,0.4434,0.4428,0.4426,0.4419,0.4407,0.4423,0.4423,0.4421,0.439,0.4388,0.4386,0.4407,0.4407,0.4407,0.4391,0,0.4502,0.4483,0.4482,0.4465,0.4456,0.4459,0.4449,0.4443,0.444,0.4432,0.4429,0.4419,0.4424,0.442,0.4413,0.441,0.44,0.4411,0.4399,0.4399,0.4401,0.4383,0.438,0.4366,0.4389,0.4388,0.4388,0,0.4479,0.4471,0.4454,0.4448,0.4444,0.4436,0.4427,0.442,0.4413,0.4412,0.4406,0.4406,0.4395,0.4402,0.4387,0.4394,0.439,0.4387,0.4387,0.4385,0.4393,0.4381,0.4361,0.4359,0.4385,0.4385,0.4385,0,0.4465,0.4451,0.4439,0.4435,0.4427,0.4422,0.4418,0.4412,0.4407,0.44,0.4396,0.4388,0.4383,0.4376,0.4374,0.4379,0.436,0.4366,0.4359,0.4359,0.4354,0.4355,0.4333,0.4351,0.4351,0.4351,0.4351,0,0.4445,0.4435,0.4433,0.4425,0.4413,0.4413,0.4401,0.4398,0.4393,0.4385,0.4386,0.4379,0.4376,0.4369,0.4367,0.4356,0.4353,0.4352,0.4352,0.4352,0.4352,0.4349,0.435,0.4351,0.4351,0.4351,0.4351,0,0.4428,0.4426,0.4413,0.4407,0.4406,0.4397,0.4393,0.4386,0.4384,0.4374,0.4371,0.4368,0.4359,0.4356,0.4345,0.4344,0.4331,0.4332,0.4334,0.4334,0.4326,0.4327,0.4302,0.4299,0.4319,0.4319,0.4318,0,0.4415,0.4407,0.4401,0.4397,0.4393,0.4385,0.438,0.4379,0.4374,0.4367,0.4361,0.4352,0.4345,0.4331,0.4327,0.4319,0.432,0.4312,0.4318,0.4319,0.432,0.4321,0.432,0.431,0.431,0.431,0.431,0,0.4394,0.4394,0.4387,0.4379,0.4374,0.4368,0.4362,0.4358,0.4357,0.4351,0.4342,0.4337,0.4326,0.4318,0.431,0.4307,0.4308,0.4308,0.4306,0.4306,0.4307,0.4307,0.433,0.4308,0.4308,0.4308,0.4308,0.4308,0.4379,0.4372,0.4367,0.436,0.4356,0.4351,0.4344,0.4342,0.4335,0.4327,0.4327,0.4317,0.4312,0.4302,0.4298,0.4291,0.4293,0.429,0.4289,0.4288,0.4288,0.4309,0.4289,0.4289,0.4289,0.4289,0.4289,0,0.4358,0.4355,0.4348,0.4341,0.4335,0.4338,0.4332,0.4327,0.4319,0.4314,0.4308,0.4298,0.429,0.4287,0.4279,0.4274,0.4275,0.4272,0.4273,0.4272,0.4286,0.4289,0.4272,0.4272,0.4272,0.4272,0.4272,0.4272,0.4346,0.4335,0.4335,0.4322,0.432,0.4311,0.4308,0.4304,0.43,0.4289,0.4283,0.4281,0.4277,0.4269,0.4263,0.4262,0.4259,0.4256,0.4256,0.4269,0.4271,0.4272,0.4275,0.4256,0.4256,0.4242,0.4242,0.4242]}]]